Flag for Germany Weather past 2 weeks in Meissen, Saxony, Germany

Now
75 °F

Sunny.


Feels Like: 78 °F
Forecast: 64 / 84 °F
Wind: 12 mph from East

Location: Dresden-Klotzsche

Current Time: Aug 1, 2014 at 4:30:57 PM

Latest Report: Aug 1, 2014 at 3:50 PM


Visibility: 10 mi

Pressure: 29.92 "Hg

Humidity: 50%

Dew point: 55 °F

Location of MeissenLocation

Historic Weather in Meissen — Graph

°F

Meissen temperature yesterday

Maximum temperature yesterday: 73 °F (at 3:20 PM)
Minimum temperature yesterday: 63 °F (at 5:20 AM)
Average temperature yesterday: 67 °F

Past Weeks' High & Low Weather Summary

 TemperatureHumidityPressure
High90 °F (Jul 20, 2:20 PM)100% (Jul 24, 9:50 PM)30.15 "Hg (Jul 24, 9:50 PM)
Low55 °F (Aug 1, 4:50 AM)24% (Jul 20, 3:50 PM)29.71 "Hg (Jul 29, 5:20 PM)
Average71 °F68%29.93 "Hg
* Reported Jul 17 3:20 PM — Aug 1 3:20 PM, Meissen, Weather by CustomWeather, © 2014

Note: Actual official high and low records may vary slightly from our data, if they occured in-between our weather recording intervals... More about our weather records

Advertising

Meissen weather history for previous 24 hours

 ConditionsComfort  
Time TempWeatherWind HumidityBarometerVisibility
3:20 PM
Aug 1
75 °FSunny.10 mph50%29.92 "Hg10 mi
2:50 PM75 °FSunny.12 mph50%29.92 "Hg10 mi
2:20 PM75 °FSunny.8 mph47%29.92 "Hg10 mi
1:50 PM75 °FPartly sunny.9 mph47%29.92 "HgN/A
1:20 PM75 °FPartly sunny.7 mph50%29.92 "HgN/A
12:50 PM75 °FPartly sunny.7 mph50%29.95 "HgN/A
12:20 PM73 °FScattered clouds.7 mph50%29.95 "HgN/A
11:50 AM73 °FScattered clouds.7 mph50%29.95 "HgN/A
11:20 AM73 °FScattered clouds.5 mph47%29.95 "HgN/A
10:50 AM72 °FScattered clouds.5 mph57%29.95 "HgN/A
10:20 AM70 °FScattered clouds.3 mph60%29.98 "HgN/A
9:50 AM70 °FSunny.2 mph64%29.98 "Hg10 mi
9:20 AM66 °FSunny.No wind68%29.98 "Hg10 mi
8:50 AM63 °FSunny.1 mph77%29.98 "Hg10 mi
8:20 AM59 °FSunny.2 mph88%29.98 "Hg10 mi
7:50 AM57 °FSunny.2 mph88%29.98 "Hg10 mi
7:20 AM57 °FSunny.3 mph88%29.98 "Hg10 mi
6:50 AM57 °FSunny.2 mph88%29.98 "Hg10 mi
6:20 AM55 °FClear.5 mph94%29.98 "Hg10 mi
5:50 AM55 °FClear.3 mph94%29.98 "Hg10 mi
5:20 AM55 °FClear.5 mph94%29.98 "Hg10 mi
4:50 AM55 °FClear.7 mph94%29.98 "Hg10 mi
4:20 AM57 °FClear.7 mph88%29.98 "Hg10 mi
3:50 AM57 °FClear.7 mph88%29.98 "Hg10 mi
3:20 AM57 °FClear.7 mph94%29.98 "Hg10 mi
2:50 AM59 °FClear.7 mph88%29.98 "Hg10 mi
2:20 AM59 °FClear.7 mph82%29.98 "Hg10 mi
1:50 AM59 °FClear.7 mph88%29.98 "Hg10 mi
1:20 AM59 °FClear.7 mph88%29.98 "Hg10 mi
12:50 AM61 °FClear.6 mph83%29.98 "Hg10 mi
12:20 AM63 °FClear.6 mph77%29.98 "Hg10 mi
11:50 PM
Jul 31
64 °FClear.5 mph73%29.98 "Hg10 mi
11:20 PM66 °FClear.2 mph60%29.98 "Hg10 mi
10:50 PM66 °FClear.2 mph60%29.98 "Hg10 mi
10:20 PM66 °FClear.3 mph60%29.98 "Hg10 mi
9:50 PM68 °FSunny.3 mph60%29.98 "Hg10 mi
9:20 PM68 °FSunny.3 mph60%29.95 "Hg10 mi
8:50 PM70 °FSunny.3 mph57%29.95 "Hg10 mi
8:20 PM72 °FSunny.3 mph53%29.95 "Hg10 mi
7:50 PM72 °FSunny.5 mph53%29.95 "Hg10 mi
7:20 PM72 °FSunny.5 mph50%29.95 "Hg10 mi
6:50 PM73 °FSunny.6 mph47%29.95 "Hg10 mi
6:20 PM73 °FSunny.7 mph44%29.95 "Hg10 mi
5:50 PM73 °FSunny.5 mph44%29.95 "Hg10 mi
5:20 PM73 °FSunny.7 mph44%29.95 "Hg10 mi
4:50 PM73 °FPartly sunny.8 mph44%29.95 "HgN/A
4:20 PM73 °FScattered clouds.7 mph44%29.95 "HgN/A
Weather by CustomWeather, © 2014

See weather overviewHow to use our weather pages